Нижнебаканская

Россия / Краснодарский край     44°49′59″N   37°40′48″E
темп.,
°C
ветер,
м/с
пор.,
м/с
влажн.,
%
обл.,
%
осадки,
мм/ч
давл.,
гПа
погр.,
м
14 мая, пт
пт1400:00+16в11695 0.0 100911
03:00+16ююв11675 0.0 100913
06:00+16ююв12665 0.0 101022
09:00+22ююз124025 0.0 1010261
12:00+25ююз24333 0.0 1011717
15:00+25ююз2434100 0.0 1011603
18:00+22юз11539 0.0 1011103
21:00+16ссв21630 0.0 101219
15 мая, сб
сб1500:00+15сз22680 0.0 101318
03:00+14ссз23636 0.0 101336
06:00+15ссв216571 0.0 101420
09:00+21в11475 0.0 1014429
12:00+25вюв133854 0.0 1014941
15:00+24юв12467 0.0 1013891
18:00+24всв25585 0.0 1011712
21:00+18с2483100 0.0 1012100
16 мая, вс
вс1600:00+17св238777 0.0 101048
03:00+16ссв119410 0.1 101115
06:00+16ссв2395100 0.0 100990
09:00+23всв2761100 0.0 1008588
12:00+27всв365510 0.0 10071208
15:00+27св575799 0.1 10061110
18:00+25св611655 0.1 1004800
21:00+22св5138453 0.1 1003500
17 мая, пн
пн1700:00+19всв119552 0.0 100311
03:00+19вюв2487100 0.0 100387
06:00+17ююв5127999 0.1 1004592
09:00+17ю61084100 0.1 1006531
12:00+18ююв4975100 0.0 1007500
15:00+17ю487830 0.0 1008477
18:00+16ююв358593 0.0 1009350
21:00+13ююв259744 0.0 1011228
18 мая, вт
вт1800:00+14ююв3895100 0.0 1011468
03:00+14ююв3797100 0.1 1012415
06:00+14ююв269570 0.1 1013363
09:00+16ююв368260 0.2 1014533
12:00+19ю447012 0.0 1014600
15:00+18ю347221 0.0 1015547
18:00+16ююв348427 0.0 1015323
21:00+13ююв249838 0.0 1015149